Location: Harwich
(41.7160°N, 69.9939°W)
Time: 09:48:31
(UTC+02:00)

A-11 Canister half - Pass Details

Date: 03 March 2024
Orbit: 1513 x 1686 km, 47.2° (Epoch: 24 April)

Event Time Altitude Azimuth Distance (km) Brightness Sun altitude
Exits shadow 07:01:17 31° 63° (ENE) 2,643 10.3 -51.7°
Drops below altitude 10° 07:05:37 10° 68° (ENE) 3,904 11.4 -51.3°
Sets 07:08:45 0° 70° (ENE) 4,874 12.1 -51.0°
